Satellite: AO-51
Catalog number: 28375
Epoch time:      05087.20380547
Element set:     216
Inclination:      098.2225 deg
RA of node:       152.9408 deg
Eccentricity:    0.0084955
Arg of perigee:   115.2652 deg
Mean anomaly:     245.7473 deg
Mean motion:   14.40443104 rev/day
Decay rate:       -4.3e-07 rev/day^2
Epoch rev:            3895
Checksum:              300

/EX
SB KEPS @ AMSAT  $ORB05090.W
Orbital Elements  05090.WEATHER

HR AMSAT ORBITAL ELEMENTS FOR WEATHER SATELLITES
FROM WA5QGD FORT WORTH,TX March 31, 2005
SEND SUBSCRIBE/UNSUBSCRIBE TO majordomo@amsat.org ONLY
BID: ORB05090.W
TO ALL RADIO AMATEURS BT

Satellite: NOAA-10
Catalog number: 16969
Epoch time:      05090.30175243
Element set:     674
Inclination:      098.7657 deg
RA of node:       095.8745 deg
Eccentricity:    0.0012409
Arg of perigee:   004.6868 deg
Mean anomaly:     355.4432 deg
Mean motion:   14.27247153 rev/day
Decay rate:       -2.3e-07 rev/day^2
Epoch rev:           96398
Checksum:              330

Satellite: NOAA-11
Catalog number: 19531
Epoch time:      05090.42835775
Element set:     526
Inclination:      098.8438 deg
RA of node:       178.1627 deg
Eccentricity:    0.0012232
Arg of perigee:   165.0918 deg
Mean anomaly:     195.0618 deg
Mean motion:   14.14750162 rev/day
Decay rate:       2.75e-06 rev/day^2
Epoch rev:           85193
Checksum:              312

Satellite: NOAA-12
Catalog number: 21263
Epoch time:      05090.96712028
Element set:      20
Inclination:      098.6977 deg
RA of node:       081.9708 deg
Eccentricity:    0.0011945
Arg of perigee:   295.6659 deg
Mean anomaly:     064.3292 deg
Mean motion:   14.25455688 rev/day
Decay rate:       -4.6e-07 rev/day^2
Epoch rev:           72124
Checksum:              321

Satellite: MET-3/5
Catalog number: 21655
Epoch time:      05089.85287449
Element set:    0781
Inclination:      082.5581 deg
RA of node:       213.9813 deg
Eccentricity:    0.0014331
Arg of perigee:   072.4078 deg
Mean anomaly:     287.8634 deg
Mean motion:   13.16998062 rev/day
Decay rate:        5.1e-07 rev/day^2
Epoch rev:           65500
Checksum:              324

Satellite: MET-2/21
Catalog number: 22782
Epoch time:      05089.66220648
Element set:    0166
Inclination:      082.5496 deg
RA of node:       323.2858 deg
Eccentricity:    0.0022049
Arg of perigee:   347.1836 deg
Mean anomaly:     012.8745 deg
Mean motion:   13.83585430 rev/day
Decay rate:        9.8e-07 rev/day^2
Epoch rev:           58471
Checksum:              329

Satellite: OKEAN-4
Catalog number: 23317
Epoch time:      05089.76718636
Element set:    0589
Inclination:      082.5410 deg
RA of node:       330.5113 deg
Eccentricity:    0.0023664
Arg of perigee:   037.7456 deg
Mean anomaly:     322.5407 deg
Mean motion:   14.82104565 rev/day
Decay rate:       3.86e-06 rev/day^2
Epoch rev:           56429
Checksum:              309

Satellite: NOAA-14
Catalog number: 23455
Epoch time:      05090.35740996
Element set:     543
Inclination:      099.0983 deg
RA of node:       137.3840 deg
Eccentricity:    0.0008955
Arg of perigee:   215.3172 deg
Mean anomaly:     144.7407 deg
Mean motion:   14.13549501 rev/day
Decay rate:       -8.2e-07 rev/day^2
Epoch rev:           52850
Checksum:              307

Satellite: SICH-1
Catalog number: 23657
Epoch time:      05090.74748252
Element set:     392
Inclination:      082.5260 deg
RA of node:       110.4361 deg
Eccentricity:    0.0024857
Arg of perigee:   021.2790 deg
Mean anomaly:     338.9476 deg
Mean motion:   14.81119955 rev/day
Decay rate:       2.74e-06 rev/day^2
Epoch rev:           51649
Checksum:              309

Satellite: NOAA-15
Catalog number: 25338
Epoch time:      05090.31472579
Element set:     987
Inclination:      098.5166 deg
RA of node:       101.0121 deg
Eccentricity:    0.0009888
Arg of perigee:   222.0259 deg
Mean anomaly:     138.0158 deg
Mean motion:   14.24497348 rev/day
Decay rate:        5.3e-07 rev/day^2
Epoch rev:           35766
Checksum:              317

Satellite: RESURS
Catalog number: 25394
Epoch time:      05089.94038673
Element set:    0108
Inclination:      098.5455 deg
RA of node:       161.3574 deg
Eccentricity:    0.0002125
Arg of perigee:   060.3243 deg
Mean anomaly:     299.8147 deg
Mean motion:   14.24057429 rev/day
Decay rate:        2.8e-07 rev/day^2
Epoch rev:           34931
Checksum:              303

Satellite: FENGYUN1
Catalog number: 25730
Epoch time:      05089.39724439
Element set:    0379
Inclination:      098.6065 deg
RA of node:       094.3288 deg
Eccentricity:    0.0013975
Arg of perigee:   329.6676 deg
Mean anomaly:     030.3683 deg
Mean motion:   14.11791877 rev/day
Decay rate:       -4.7e-07 rev/day^2
Epoch rev:           30339
Checksum:              341

Satellite: OKEAN-0
Catalog number: 25860
Epoch time:      05089.65225060
Element set:    0395
Inclination:      097.7661 deg
RA of node:       118.9714 deg
Eccentricity:    0.0002219
Arg of perigee:   099.2799 deg
Mean anomaly:     260.8661 deg
Mean motion:   14.73225548 rev/day
Decay rate:       1.54e-06 rev/day^2
Epoch rev:           30644
Checksum:              319

Satellite: NOAA-16
Catalog number: 26536
Epoch time:      05090.42659122
Element set:     295
Inclination:      099.0061 deg
RA of node:       048.4561 deg
Eccentricity:    0.0009724
Arg of perigee:   288.1187 deg
Mean anomaly:     071.8937 deg
Mean motion:   14.12224059 rev/day
Decay rate:       3.25e-06 rev/day^2
Epoch rev:           23308
Checksum:              301

